CUBESAT XI 5

Last updated on Wed Feb 06 2019 03:04:44 GMT+0000 (Coordinated Universal Time)

1 28895U 05043F 19036.88340102 .00000106 00000-0 29112-4 0 9995 2 28895 97.9369 184.3351 0017784 54.2612 306.0242 14.63627775708065
UTC large
Height (km)
Speed (km/s)
/
Latitude / Longitude
Inclination (degrees)
Orbital Period (minutes)
Azimuth
Elevation
Range (km)
Doppler Factor

Next 0 passes for location: London (51.5072 / 0.1276)

Sorry there are no passes over London.